N282WB KAPA-KPVU

Flight info

Callsign N282WB
Flight time 1h 11m
Altitude 43000
Route WNGSS1 TEHRU RIL SPANE TAYTR3
Aircraft C25B/M-SDE2E3FGHRWXY/LB1

Departure

Time 2026-04-26 18:18
Airport Centennial Airport (KAPA)

Arrival

Time 2026-04-26 19:30
Airport Provo Municipal Airport (KPVU)
Time Latitude Longitude Altitude Speed Heading
2026-04-26 18:02 39.58045 -104.84867 5806 ft 0 kts 88°
2026-04-26 18:12 39.58045 -104.84864 5806 ft 3 kts 87°
2026-04-26 18:12 39.58071 -104.84869 5807 ft 10 kts 285°
2026-04-26 18:12 39.58066 -104.84982 5806 ft 10 kts 218°
2026-04-26 18:13 39.58006 -104.84988 5806 ft 12 kts 183°
2026-04-26 18:13 39.57889 -104.84983 5809 ft 20 kts 179°
2026-04-26 18:13 39.57730 -104.84975 5819 ft 25 kts 177°
2026-04-26 18:13 39.57610 -104.84968 5823 ft 27 kts 178°
2026-04-26 18:14 39.57392 -104.84960 5836 ft 19 kts 178°
2026-04-26 18:14 39.57268 -104.84954 5840 ft 17 kts 178°
2026-04-26 18:14 39.57152 -104.84949 5842 ft 16 kts 178°
2026-04-26 18:14 39.57053 -104.84943 5846 ft 13 kts 175°
2026-04-26 18:15 39.56959 -104.84940 5849 ft 15 kts 178°
2026-04-26 18:15 39.56842 -104.84933 5848 ft 19 kts 179°
2026-04-26 18:15 39.56700 -104.84928 5851 ft 21 kts 178°
2026-04-26 18:15 39.56557 -104.84921 5856 ft 21 kts 177°
2026-04-26 18:16 39.56403 -104.84914 5860 ft 23 kts 178°
2026-04-26 18:16 39.56115 -104.84901 5876 ft 20 kts 178°
2026-04-26 18:16 39.55974 -104.84895 5887 ft 20 kts 178°
2026-04-26 18:17 39.55838 -104.84888 5890 ft 19 kts 178°
2026-04-26 18:17 39.55721 -104.84882 5891 ft 12 kts 177°
2026-04-26 18:17 39.55681 -104.84913 5891 ft 7 kts 265°
2026-04-26 18:17 39.55679 -104.84998 5892 ft 13 kts 272°
2026-04-26 18:18 39.55847 -104.85032 5889 ft 66 kts 356°
2026-04-26 18:18 39.56664 -104.85072 5974 ft 158 kts 358°
2026-04-26 18:18 39.57826 -104.85332 7072 ft 178 kts 334°
2026-04-26 18:18 39.58869 -104.86406 8018 ft 206 kts 315°
2026-04-26 18:19 39.59980 -104.87720 9040 ft 231 kts 316°
2026-04-26 18:19 39.61293 -104.89139 9927 ft 257 kts 317°
2026-04-26 18:19 39.62694 -104.90638 10735 ft 264 kts 317°
2026-04-26 18:19 39.64127 -104.92123 11571 ft 266 kts 317°
2026-04-26 18:20 39.65599 -104.93606 12428 ft 268 kts 317°
2026-04-26 18:20 39.66754 -104.95438 13222 ft 256 kts 284°
2026-04-26 18:20 39.66771 -104.97636 14050 ft 244 kts 252°
2026-04-26 18:20 39.66626 -104.98333 14286 ft 245 kts 252°
2026-04-26 18:21 39.65987 -105.01957 15566 ft 247 kts 253°
2026-04-26 18:21 39.65602 -105.04125 16329 ft 249 kts 255°
2026-04-26 18:21 39.65216 -105.06325 17098 ft 250 kts 254°
2026-04-26 18:21 39.64828 -105.08546 17871 ft 252 kts 255°
2026-04-26 18:22 39.64435 -105.10774 18525 ft 254 kts 255°
2026-04-26 18:22 39.64043 -105.13008 19109 ft 258 kts 255°
2026-04-26 18:22 39.63637 -105.15297 19728 ft 261 kts 254°
2026-04-26 18:22 39.63229 -105.17627 20337 ft 265 kts 255°
2026-04-26 18:23 39.62814 -105.19960 20929 ft 269 kts 254°
2026-04-26 18:23 39.62398 -105.22329 21545 ft 273 kts 254°
2026-04-26 18:23 39.61964 -105.24769 22194 ft 277 kts 254°
2026-04-26 18:23 39.61531 -105.27210 22798 ft 281 kts 254°
2026-04-26 18:24 39.61091 -105.29693 23400 ft 285 kts 254°
2026-04-26 18:24 39.60641 -105.32230 23936 ft 289 kts 254°
2026-04-26 18:24 39.60190 -105.34756 24479 ft 291 kts 254°
2026-04-26 18:24 39.59729 -105.37349 25036 ft 295 kts 254°
2026-04-26 18:25 39.59267 -105.39932 25608 ft 297 kts 254°
2026-04-26 18:25 39.58795 -105.42574 26172 ft 301 kts 254°
2026-04-26 18:25 39.58323 -105.45209 26716 ft 304 kts 254°
2026-04-26 18:25 39.57840 -105.47908 27296 ft 307 kts 254°
2026-04-26 18:26 39.57358 -105.50590 27841 ft 310 kts 254°
2026-04-26 18:26 39.56867 -105.53327 28386 ft 313 kts 253°
2026-04-26 18:26 39.56366 -105.56102 28947 ft 317 kts 254°
2026-04-26 18:26 39.55866 -105.58879 29501 ft 320 kts 253°
2026-04-26 18:27 39.55345 -105.61721 29998 ft 323 kts 252°
2026-04-26 18:27 39.54588 -105.64455 30534 ft 321 kts 246°
2026-04-26 18:27 39.53847 -105.67159 31110 ft 321 kts 248°
2026-04-26 18:27 39.53109 -105.69906 31683 ft 321 kts 248°
2026-04-26 18:28 39.52360 -105.72612 32268 ft 321 kts 248°
2026-04-26 18:28 39.51596 -105.75344 32829 ft 321 kts 247°
2026-04-26 18:28 39.50843 -105.78051 33370 ft 321 kts 248°
2026-04-26 18:28 39.50093 -105.80759 33888 ft 321 kts 248°
2026-04-26 18:29 39.49336 -105.83491 34289 ft 323 kts 248°
2026-04-26 18:29 39.48565 -105.86256 34643 ft 325 kts 248°
2026-04-26 18:29 39.47801 -105.88998 35009 ft 327 kts 248°
2026-04-26 18:29 39.47019 -105.91796 35361 ft 329 kts 248°
2026-04-26 18:30 39.46248 -105.94564 35692 ft 330 kts 248°
2026-04-26 18:30 39.45462 -105.97375 35966 ft 332 kts 248°
2026-04-26 18:30 39.44679 -106.00177 36278 ft 334 kts 249°
2026-04-26 18:30 39.43876 -106.03040 36558 ft 336 kts 248°
2026-04-26 18:31 39.43084 -106.05864 36814 ft 338 kts 249°
2026-04-26 18:31 39.42283 -106.08718 37073 ft 340 kts 249°
2026-04-26 18:31 39.41470 -106.11611 37325 ft 341 kts 249°
2026-04-26 18:31 39.40665 -106.14472 37558 ft 342 kts 249°
2026-04-26 18:32 39.39844 -106.17393 37796 ft 343 kts 249°
2026-04-26 18:32 39.39017 -106.20321 38007 ft 345 kts 249°
2026-04-26 18:32 39.38201 -106.23206 38213 ft 347 kts 249°
2026-04-26 18:32 39.37367 -106.26157 38417 ft 347 kts 249°
2026-04-26 18:33 39.36544 -106.29072 38582 ft 349 kts 249°
2026-04-26 18:33 39.35700 -106.32044 38713 ft 351 kts 249°
2026-04-26 18:33 39.34856 -106.35021 38849 ft 352 kts 249°
2026-04-26 18:33 39.34015 -106.37982 38962 ft 354 kts 249°
2026-04-26 18:34 39.33172 -106.40947 39088 ft 354 kts 249°
2026-04-26 18:34 39.32314 -106.43962 39210 ft 354 kts 248°
2026-04-26 18:34 39.30611 -106.49936 39362 ft 357 kts 249°
2026-04-26 18:35 39.29753 -106.52953 39539 ft 356 kts 249°
2026-04-26 18:35 39.28898 -106.55927 39694 ft 356 kts 249°
2026-04-26 18:35 39.28041 -106.58919 39824 ft 357 kts 249°
2026-04-26 18:35 39.27468 -106.60923 39895 ft 356 kts 249°
2026-04-26 18:36 39.26386 -106.64960 40035 ft 359 kts 253°
2026-04-26 18:36 39.26019 -106.67049 40138 ft 359 kts 257°
2026-04-26 18:36 39.25703 -106.70288 40300 ft 362 kts 263°
2026-04-26 18:36 39.25689 -106.73514 40445 ft 365 kts 269°
2026-04-26 18:37 39.25987 -106.76792 40614 ft 368 kts 275°
2026-04-26 18:37 39.26599 -106.80006 40764 ft 373 kts 282°
2026-04-26 18:37 39.27499 -106.83186 40920 ft 376 kts 285°
2026-04-26 18:37 39.28407 -106.86320 41067 ft 376 kts 284°
2026-04-26 18:38 39.29317 -106.89497 41226 ft 376 kts 284°
2026-04-26 18:38 39.30229 -106.92650 41381 ft 377 kts 285°
2026-04-26 18:38 39.32071 -106.99004 41626 ft 377 kts 284°
2026-04-26 18:39 39.32983 -107.02184 41745 ft 378 kts 284°
2026-04-26 18:39 39.33892 -107.05336 41911 ft 378 kts 284°
2026-04-26 18:39 39.34816 -107.08539 42033 ft 378 kts 285°
2026-04-26 18:39 39.35736 -107.11736 42157 ft 378 kts 284°
2026-04-26 18:40 39.36638 -107.14889 42273 ft 378 kts 284°
2026-04-26 18:40 39.37556 -107.18090 42428 ft 378 kts 284°
2026-04-26 18:40 39.38474 -107.21293 42598 ft 378 kts 284°
2026-04-26 18:40 39.39378 -107.24452 42722 ft 376 kts 285°
2026-04-26 18:41 39.41178 -107.30754 42705 ft 369 kts 284°
2026-04-26 18:41 39.42929 -107.36905 42712 ft 363 kts 284°
2026-04-26 18:42 39.44669 -107.43029 42725 ft 358 kts 284°
2026-04-26 18:42 39.46361 -107.49001 42744 ft 354 kts 284°
2026-04-26 18:43 39.48053 -107.54984 42769 ft 351 kts 284°
2026-04-26 18:43 39.49724 -107.60906 42784 ft 349 kts 284°
2026-04-26 18:44 39.51378 -107.66785 42782 ft 347 kts 284°
2026-04-26 18:44 39.52961 -107.72685 42797 ft 342 kts 279°
2026-04-26 18:45 39.53998 -107.78660 42794 ft 340 kts 278°
2026-04-26 18:45 39.55046 -107.84627 42789 ft 339 kts 277°
2026-04-26 18:46 39.56075 -107.90562 42776 ft 336 kts 278°
2026-04-26 18:46 39.57094 -107.96448 42741 ft 336 kts 278°
2026-04-26 18:47 39.58113 -108.02354 42718 ft 336 kts 278°
2026-04-26 18:47 39.59131 -108.08265 42692 ft 336 kts 278°
2026-04-26 18:48 39.60146 -108.14191 42662 ft 337 kts 278°
2026-04-26 18:48 39.61158 -108.20114 42641 ft 337 kts 278°
2026-04-26 18:49 39.62167 -108.26047 42643 ft 337 kts 278°
2026-04-26 18:49 39.63182 -108.32012 42646 ft 337 kts 277°
2026-04-26 18:50 39.64183 -108.37932 42646 ft 337 kts 277°
2026-04-26 18:50 39.65184 -108.43858 42645 ft 336 kts 277°
2026-04-26 18:51 39.66180 -108.49800 42648 ft 336 kts 277°
2026-04-26 18:51 39.67174 -108.55718 42645 ft 337 kts 277°
2026-04-26 18:52 39.68167 -108.61664 42649 ft 337 kts 277°
2026-04-26 18:52 39.69157 -108.67608 42647 ft 338 kts 277°
2026-04-26 18:53 39.70145 -108.73570 42646 ft 338 kts 278°
2026-04-26 18:53 39.71129 -108.79531 42649 ft 338 kts 277°
2026-04-26 18:54 39.72116 -108.85511 42648 ft 338 kts 277°
2026-04-26 18:54 39.73094 -108.91464 42651 ft 338 kts 277°
2026-04-26 18:55 39.74074 -108.97454 42643 ft 338 kts 277°
2026-04-26 18:55 39.75049 -109.03440 42636 ft 339 kts 277°
2026-04-26 18:56 39.76018 -109.09394 42643 ft 338 kts 277°
2026-04-26 18:56 39.76987 -109.15382 42640 ft 338 kts 277°
2026-04-26 18:57 39.77795 -109.20380 42640 ft 338 kts 277°
2026-04-26 18:57 39.78917 -109.27349 42633 ft 339 kts 277°
2026-04-26 18:58 39.79882 -109.33372 42636 ft 339 kts 277°
2026-04-26 18:58 39.80840 -109.39371 42641 ft 339 kts 277°
2026-04-26 18:59 39.81795 -109.45363 42635 ft 339 kts 277°
2026-04-26 18:59 39.82746 -109.51368 42637 ft 339 kts 277°
2026-04-26 19:00 39.83227 -109.54402 42481 ft 343 kts 277°
2026-04-26 19:00 39.83707 -109.57467 42046 ft 354 kts 277°
2026-04-26 19:00 39.84208 -109.60649 41587 ft 365 kts 277°
2026-04-26 19:00 39.84730 -109.63954 41097 ft 375 kts 277°
2026-04-26 19:01 39.85256 -109.67302 40603 ft 384 kts 277°
2026-04-26 19:01 39.85797 -109.70755 40093 ft 392 kts 277°
2026-04-26 19:01 39.86340 -109.74234 39580 ft 399 kts 277°
2026-04-26 19:01 39.86902 -109.77825 39039 ft 405 kts 277°
2026-04-26 19:02 39.87469 -109.81465 38504 ft 411 kts 277°
2026-04-26 19:02 39.88034 -109.85102 37912 ft 415 kts 277°
2026-04-26 19:02 39.88602 -109.88767 37356 ft 416 kts 277°
2026-04-26 19:02 39.88986 -109.91235 36994 ft 417 kts 277°
2026-04-26 19:03 39.89746 -109.96167 36263 ft 418 kts 277°
2026-04-26 19:03 39.90321 -109.99903 35713 ft 420 kts 277°
2026-04-26 19:03 39.90897 -110.03651 35161 ft 421 kts 277°
2026-04-26 19:03 39.91470 -110.07375 34609 ft 423 kts 278°
2026-04-26 19:04 39.92047 -110.11157 34049 ft 424 kts 277°
2026-04-26 19:04 39.92620 -110.14908 33471 ft 426 kts 278°
2026-04-26 19:04 39.93200 -110.18727 32883 ft 426 kts 278°
2026-04-26 19:04 39.93767 -110.22418 32341 ft 410 kts 278°
2026-04-26 19:05 39.94838 -110.29515 30776 ft 397 kts 278°
2026-04-26 19:05 39.95372 -110.33102 30558 ft 407 kts 278°
2026-04-26 19:05 39.95924 -110.36760 30221 ft 424 kts 278°
2026-04-26 19:06 39.96511 -110.40654 29641 ft 445 kts 278°
2026-04-26 19:06 39.97102 -110.44572 29028 ft 435 kts 278°
2026-04-26 19:06 39.97677 -110.48370 28466 ft 414 kts 278°
2026-04-26 19:06 39.98207 -110.51957 27934 ft 398 kts 278°
2026-04-26 19:07 39.98728 -110.55470 27412 ft 385 kts 278°
2026-04-26 19:07 39.99227 -110.58823 26916 ft 375 kts 278°
2026-04-26 19:07 39.99713 -110.62106 26430 ft 370 kts 278°
2026-04-26 19:07 40.00196 -110.65405 25944 ft 367 kts 278°
2026-04-26 19:08 40.00679 -110.68656 25468 ft 368 kts 279°
2026-04-26 19:08 40.01162 -110.71936 24984 ft 370 kts 279°
2026-04-26 19:08 40.01647 -110.75230 24485 ft 372 kts 278°
2026-04-26 19:08 40.02137 -110.78570 23998 ft 373 kts 279°
2026-04-26 19:09 40.02621 -110.81877 23510 ft 374 kts 279°
2026-04-26 19:09 40.03106 -110.85216 22983 ft 374 kts 279°
2026-04-26 19:09 40.03602 -110.88561 22476 ft 372 kts 279°
2026-04-26 19:09 40.04075 -110.91834 21988 ft 369 kts 279°
2026-04-26 19:10 40.04547 -110.95131 21497 ft 367 kts 278°
2026-04-26 19:10 40.05022 -110.98389 21021 ft 368 kts 279°
2026-04-26 19:10 40.05521 -111.01810 20514 ft 396 kts 278°
2026-04-26 19:10 40.06024 -111.05353 19994 ft 402 kts 278°
2026-04-26 19:11 40.06542 -111.08946 19454 ft 400 kts 278°
2026-04-26 19:11 40.07058 -111.12479 18934 ft 398 kts 278°
2026-04-26 19:11 40.07567 -111.16060 18404 ft 396 kts 278°
2026-04-26 19:11 40.08059 -111.19481 17900 ft 377 kts 278°
2026-04-26 19:12 40.08525 -111.22749 17648 ft 356 kts 278°
2026-04-26 19:12 40.08971 -111.25898 17208 ft 348 kts 278°
2026-04-26 19:12 40.09407 -111.28989 16751 ft 349 kts 278°
2026-04-26 19:12 40.09856 -111.32151 16293 ft 357 kts 277°
2026-04-26 19:13 40.10312 -111.35373 15820 ft 362 kts 278°
2026-04-26 19:13 40.10765 -111.38580 15351 ft 359 kts 278°
2026-04-26 19:13 40.11215 -111.41750 14884 ft 351 kts 278°
2026-04-26 19:13 40.11644 -111.44809 14435 ft 334 kts 278°
2026-04-26 19:14 40.12050 -111.47684 14018 ft 308 kts 277°
2026-04-26 19:14 40.12427 -111.50367 13621 ft 289 kts 277°
2026-04-26 19:14 40.12767 -111.52865 13233 ft 273 kts 276°
2026-04-26 19:14 40.12847 -111.53660 13101 ft 267 kts 272°
2026-04-26 19:15 40.12586 -111.57460 12991 ft 243 kts 253°
2026-04-26 19:15 40.12163 -111.59656 12995 ft 254 kts 255°
2026-04-26 19:15 40.11789 -111.61916 12994 ft 258 kts 255°
2026-04-26 19:15 40.11382 -111.64222 12993 ft 259 kts 255°
2026-04-26 19:16 40.10973 -111.66499 12992 ft 260 kts 255°
2026-04-26 19:16 40.10560 -111.68806 12996 ft 260 kts 255°
2026-04-26 19:16 40.10150 -111.71111 12998 ft 261 kts 255°
2026-04-26 19:16 40.09737 -111.73405 13002 ft 262 kts 255°
2026-04-26 19:17 40.09319 -111.75752 13005 ft 264 kts 254°
2026-04-26 19:17 40.08945 -111.78072 12998 ft 266 kts 260°
2026-04-26 19:17 40.08969 -111.80492 12986 ft 269 kts 272°
2026-04-26 19:17 40.09370 -111.82899 12997 ft 269 kts 285°
2026-04-26 19:18 40.10029 -111.85159 12904 ft 267 kts 285°
2026-04-26 19:18 40.10640 -111.87443 12764 ft 264 kts 285°
2026-04-26 19:18 40.11260 -111.89689 12603 ft 263 kts 286°
2026-04-26 19:18 40.11891 -111.91935 12434 ft 261 kts 285°
2026-04-26 19:19 40.12503 -111.94139 12266 ft 260 kts 285°
2026-04-26 19:19 40.13114 -111.96342 12093 ft 259 kts 286°
2026-04-26 19:19 40.13725 -111.98562 11922 ft 258 kts 286°
2026-04-26 19:19 40.14427 -112.00721 11747 ft 260 kts 296°
2026-04-26 19:20 40.15503 -112.02664 11573 ft 262 kts 303°
2026-04-26 19:20 40.15860 -112.03283 11517 ft 262 kts 302°
2026-04-26 19:20 40.17797 -112.06354 11224 ft 266 kts 316°
2026-04-26 19:20 40.19344 -112.07715 11048 ft 270 kts 328°
2026-04-26 19:21 40.21113 -112.08526 10953 ft 272 kts 343°
2026-04-26 19:21 40.22869 -112.09209 10934 ft 258 kts 324°
2026-04-26 19:21 40.23982 -112.10917 10936 ft 242 kts 297°
2026-04-26 19:21 40.25187 -112.12470 10932 ft 246 kts 323°
2026-04-26 19:22 40.26803 -112.13127 10927 ft 254 kts 357°
2026-04-26 19:22 40.28511 -112.12431 10929 ft 259 kts 30°
2026-04-26 19:22 40.29952 -112.11043 10940 ft 259 kts 36°
2026-04-26 19:22 40.31362 -112.09585 10940 ft 261 kts 37°
2026-04-26 19:23 40.32800 -112.08095 10950 ft 263 kts 36°
2026-04-26 19:23 40.34248 -112.06642 10952 ft 264 kts 36°
2026-04-26 19:23 40.35226 -112.05659 10852 ft 270 kts 36°
2026-04-26 19:23 40.37089 -112.03367 10415 ft 284 kts 55°
2026-04-26 19:24 40.37766 -112.01863 10167 ft 291 kts 64°
2026-04-26 19:24 40.38355 -111.99287 9767 ft 297 kts 85°
2026-04-26 19:24 40.38603 -111.94012 8968 ft 284 kts 89°
2026-04-26 19:25 40.38646 -111.91450 8607 ft 272 kts 99°
2026-04-26 19:25 40.38398 -111.89859 8377 ft 263 kts 109°
2026-04-26 19:25 40.37456 -111.87056 7986 ft 241 kts 128°
2026-04-26 19:25 40.36482 -111.85445 7975 ft 215 kts 139°
2026-04-26 19:26 40.35414 -111.84259 7981 ft 191 kts 150°
2026-04-26 19:26 40.34329 -111.83311 7928 ft 187 kts 150°
2026-04-26 19:26 40.33198 -111.82298 7241 ft 209 kts 150°
2026-04-26 19:26 40.31962 -111.81213 6705 ft 208 kts 150°
2026-04-26 19:27 40.30829 -111.80179 6429 ft 190 kts 149°
2026-04-26 19:27 40.29819 -111.79294 6203 ft 159 kts 152°
2026-04-26 19:27 40.28968 -111.78527 6029 ft 133 kts 150°
2026-04-26 19:27 40.28297 -111.77934 5849 ft 115 kts 151°
2026-04-26 19:28 40.27652 -111.77315 5632 ft 115 kts 146°
2026-04-26 19:28 40.27035 -111.76673 5461 ft 112 kts 150°
2026-04-26 19:28 40.26372 -111.76137 5224 ft 111 kts 154°
2026-04-26 19:28 40.25742 -111.75559 5092 ft 112 kts 154°
2026-04-26 19:29 40.25085 -111.74998 5024 ft 113 kts 154°
2026-04-26 19:29 40.24411 -111.74442 4856 ft 117 kts 156°
2026-04-26 19:29 40.23738 -111.73873 4727 ft 116 kts 153°
2026-04-26 19:29 40.23088 -111.73298 4549 ft 108 kts 146°
2026-04-26 19:30 40.22533 -111.72801 4501 ft 85 kts 150°
2026-04-26 19:30 40.22207 -111.72525 4498 ft 31 kts 147°
2026-04-26 19:30 40.22040 -111.72375 4496 ft 27 kts 146°
2026-04-26 19:30 40.21945 -111.72291 4494 ft 21 kts 145°
2026-04-26 19:31 40.21911 -111.72124 4496 ft 10 kts 78°
2026-04-26 19:31 40.21917 -111.72079 4497 ft 0 kts 79°
2026-04-26 19:31 40.21921 -111.72059 4495 ft 8 kts 71°
2026-04-26 19:31 40.21927 -111.72029 4495 ft 8 kts 76°
2026-04-26 19:32 40.21950 -111.71945 4497 ft 11 kts 75°
2026-04-26 19:32 40.21931 -111.71910 4497 ft 0 kts 176°